| time (UTC) | temp F | wind direction | speed knots | gust knots | rain 1hr in | rain 24hr in | rain mn in | humidity % | barometer mb |
| 20260903204550 | 74 | 252 | 3.5 | 12.2 | 0.00 | 0.00 | 0.00 | 62 | 1013.9 |
| 20260903203050 | 73 | 194 | 3.5 | 10.4 | 0.00 | 0.00 | 0.00 | 62 | 1014.0 |
| 20260903201543 | 74 | 153 | 4.3 | 12.2 | 0.00 | 0.00 | 0.00 | 62 | 1014.1 |
| 20260903200039 | 73 | 182 | 2.6 | 13.0 | 0.00 | 0.00 | 0.00 | 63 | 1014.2 |
| 20260903194535 | 71 | 240 | 1.7 | 8.7 | 0.00 | 0.00 | 0.00 | 66 | 1014.4 |
| 20260903193033 | 71 | 165 | 2.6 | 7.0 | 0.00 | 0.00 | 0.00 | 67 | 1014.6 |
| 20260903191532 | 71 | 13 | 1.7 | 10.4 | 0.00 | 0.00 | 0.00 | 66 | 1014.7 |
| 20260903190031 | 71 | 13 | 2.6 | 11.3 | 0.00 | 0.00 | 0.00 | 66 | 1014.9 |
| 20260903184529 | 71 | 239 | 3.5 | 10.4 | 0.00 | 0.00 | 0.00 | 65 | 1015.1 |
| 20260903183029 | 72 | 175 | 4.3 | 7.8 | 0.00 | 0.00 | 0.00 | 64 | 1015.1 |
| 20260903181526 | 72 | 217 | 3.5 | 8.7 | 0.00 | 0.00 | 0.00 | 65 | 1015.1 |
| 20260903180031 | 72 | 194 | 3.5 | 7.8 | 0.00 | 0.00 | 0.00 | 66 | 1015.0 |
| 20260903174521 | 70 | 186 | 1.7 | 5.2 | 0.00 | 0.00 | 0.00 | 69 | 1015.1 |
| 20260903173017 | 69 | 242 | 0.9 | 6.1 | 0.00 | 0.00 | 0.00 | 71 | 1015.2 |
| 20260903171524 | 68 | 174 | 0.9 | 7.8 | 0.00 | 0.00 | 0.00 | 74 | 1015.2 |
| 20260903170026 | 66 | 141 | 2.6 | 8.7 | 0.00 | 0.00 | 0.00 | 75 | 1015.3 |
| 20260903164507 | 65 | 138 | 1.7 | 7.8 | 0.00 | 0.00 | 0.00 | 77 | 1015.5 |
| 20260903163007 | 65 | 113 | 1.7 | 5.2 | 0.00 | 0.00 | 0.00 | 78 | 1015.5 |
| 20260903161501 | 63 | 182 | 0.9 | 5.2 | 0.00 | 0.00 | 0.00 | 79 | 1015.6 |
| 20260903160100 | 63 | 186 | 2.6 | 6.1 | 0.00 | 0.00 | 0.00 | 80 | 1015.7 |
| 20260903154558 | 62 | 147 | 1.7 | 7.0 | 0.00 | 0.00 | 0.00 | 79 | 1015.8 |
| 20260903153057 | 62 | 132 | 0.0 | 7.0 | 0.00 | 0.00 | 0.00 | 80 | 1015.9 |
| 20260903151557 | 62 | 153 | 1.7 | 7.8 | 0.00 | 0.00 | 0.00 | 80 | 1015.8 |
| 20260903150110 | 62 | 163 | 2.6 | 7.0 | 0.00 | 0.00 | 0.00 | 80 | 1015.8 |
| 20260903144601 | 61 | 141 | 3.5 | 7.8 | 0.00 | 0.00 | 0.00 | 81 | 1015.8 |
| 20260903143056 | 61 | 163 | 1.7 | 8.7 | 0.00 | 0.00 | 0.00 | 81 | 1015.8 |
| 20260903141554 | 61 | 153 | 3.5 | 7.8 | 0.00 | 0.00 | 0.00 | 81 | 1015.6 |
| 20260903140053 | 61 | 152 | 0.9 | 7.0 | 0.00 | 0.00 | 0.00 | 81 | 1015.6 |
| 20260903134603 | 61 | 119 | 1.7 | 6.1 | 0.00 | 0.00 | 0.00 | 81 | 1015.4 |
| 20260903133051 | 61 | 139 | 1.7 | 7.0 | 0.00 | 0.00 | 0.00 | 80 | 1015.3 |
| 20260903131550 | 61 | 72 | 0.9 | 6.1 | 0.00 | 0.00 | 0.00 | 81 | 1015.4 |
| 20260903130053 | 61 | 137 | 2.6 | 6.1 | 0.00 | 0.00 | 0.00 | 80 | 1015.4 |
| 20260903124648 | 61 | 133 | 1.7 | 6.1 | 0.00 | 0.00 | 0.00 | 80 | 1015.6 |
| 20260903123048 | 61 | 159 | 1.7 | 7.8 | 0.00 | 0.00 | 0.00 | 80 | 1015.5 |
| 20260903121552 | 61 | 126 | 1.7 | 6.1 | 0.00 | 0.00 | 0.00 | 80 | 1015.5 |
| 20260903120053 | 61 | 155 | 1.7 | 6.1 | 0.00 | 0.00 | 0.00 | 80 | 1015.6 |
| 20260903114543 | 61 | 179 | 0.9 | 6.1 | 0.00 | 0.00 | 0.00 | 79 | 1015.6 |
| 20260903113047 | 61 | 188 | 1.7 | 7.8 | 0.00 | 0.00 | 0.00 | 79 | 1015.8 |
| 20260903111540 | 61 | 130 | 0.0 | 7.0 | 0.00 | 0.00 | 0.00 | 80 | 1015.9 |
| 20260903110040 | 61 | 124 | 1.7 | 5.2 | 0.00 | 0.00 | 0.00 | 80 | 1015.9 |
| 20260903104539 | 61 | 153 | 1.7 | 6.1 | 0.00 | 0.00 | 0.00 | 80 | 1015.9 |
| 20260903103038 | 61 | 139 | 1.7 | 6.1 | 0.00 | 0.00 | 0.00 | 80 | 1015.9 |
| 20260903101538 | 61 | 143 | 1.7 | 6.1 | 0.00 | 0.00 | 0.00 | 80 | 1016.0 |
| 20260903100037 | 61 | 218 | 0.9 | 4.3 | 0.00 | 0.00 | 0.00 | 79 | 1015.9 |
| 20260903094542 | 61 | 196 | 0.0 | 5.2 | 0.00 | 0.00 | 0.00 | 79 | 1015.9 |
| 20260903093034 | 61 | 147 | 0.9 | 7.0 | 0.00 | 0.00 | 0.00 | 78 | 1016.0 |
| 20260903091532 | 61 | 194 | 0.9 | 4.3 | 0.00 | 0.00 | 0.00 | 76 | 1016.3 |
| 20260903090030 | 61 | 164 | 0.0 | 6.1 | 0.00 | 0.00 | 0.00 | 75 | 1016.3 |
| 20260903084539 | 62 | 150 | 0.9 | 4.3 | 0.00 | 0.00 | 0.00 | 74 | 1016.2 |
| 20260903083027 | 62 | 133 | 0.9 | 4.3 | 0.00 | 0.00 | 0.00 | 73 | 1016.2 |
| 20260903081526 | 62 | 157 | 0.0 | 5.2 | 0.00 | 0.00 | 0.00 | 72 | 1016.2 |
| 20260903080024 | 62 | 159 | 0.9 | 2.6 | 0.00 | 0.00 | 0.00 | 71 | 1016.2 |
| 20260903074522 | 63 | 174 | 0.9 | 6.1 | 0.00 | 0.00 | 0.00 | 71 | 1016.1 |
| 20260903073021 | 63 | 145 | 1.7 | 6.1 | 0.00 | 0.00 | 0.00 | 70 | 1016.2 |
| 20260903071519 | 63 | 125 | 0.9 | 5.2 | 0.00 | 0.00 | 0.00 | 69 | 1016.1 |
| 20260903070016 | 64 | 142 | 0.9 | 3.5 | 0.00 | 0.00 | 0.00 | 68 | 1016.1 |
| 20260903064515 | 64 | 140 | 0.9 | 5.2 | 0.00 | 0.00 | 0.00 | 66 | 1016.1 |
| 20260903063014 | 65 | 158 | 0.0 | 3.5 | 0.00 | 0.00 | 0.00 | 64 | 1016.1 |
| 20260903061519 | 65 | 130 | 0.0 | 6.1 | 0.00 | 0.00 | 0.00 | 63 | 1016.0 |
| 20260903060015 | 66 | 148 | 0.0 | 5.2 | 0.00 | 0.00 | 0.00 | 62 | 1015.9 |
| 20260903054514 | 66 | 264 | 1.7 | 7.8 | 0.00 | 0.00 | 0.00 | 61 | 1015.9 |
| 20260903053022 | 67 | 221 | 2.6 | 6.1 | 0.00 | 0.00 | 0.00 | 60 | 1016.0 |
| 20260903051512 | 68 | 240 | 0.9 | 5.2 | 0.00 | 0.00 | 0.00 | 60 | 1016.1 |
| 20260903050011 | 68 | 239 | 0.9 | 6.1 | 0.00 | 0.00 | 0.00 | 59 | 1016.2 |
| 20260903044512 | 69 | 184 | 0.9 | 4.3 | 0.00 | 0.00 | 0.00 | 59 | 1016.2 |
| 20260903043024 | 70 | 202 | 0.0 | 3.5 | 0.00 | 0.00 | 0.00 | 58 | 1016.2 |
| 20260903041510 | 70 | 171 | 0.0 | 2.6 | 0.00 | 0.00 | 0.00 | 57 | 1016.0 |
| 20260903040009 | 71 | 299 | 0.0 | 3.5 | 0.00 | 0.00 | 0.00 | 55 | 1015.8 |
| 20260903034508 | 71 | 227 | 0.0 | 2.6 | 0.00 | 0.00 | 0.00 | 53 | 1015.6 |
| 20260903033007 | 72 | 192 | 0.9 | 6.1 | 0.00 | 0.00 | 0.00 | 52 | 1015.4 |
| 20260903031506 | 72 | 175 | 0.0 | 5.2 | 0.00 | 0.00 | 0.00 | 50 | 1015.3 |
| 20260903030007 | 73 | 169 | 0.0 | 4.3 | 0.00 | 0.00 | 0.00 | 49 | 1015.2 |
| 20260903024505 | 74 | 201 | 1.7 | 7.0 | 0.00 | 0.00 | 0.00 | 48 | 1015.2 |
| 20260903023004 | 74 | 273 | 0.9 | 4.3 | 0.00 | 0.00 | 0.00 | 46 | 1015.3 |
| 20260903021509 | 75 | 181 | 0.9 | 6.1 | 0.00 | 0.00 | 0.00 | 46 | 1015.4 |
| 20260903020003 | 76 | 175 | 1.7 | 7.0 | 0.00 | 0.00 | 0.00 | 45 | 1015.4 |
| 20260903014605 | 76 | 234 | 2.6 | 7.8 | 0.00 | 0.00 | 0.00 | 46 | 1015.5 |
| 20260903013059 | 77 | 172 | 1.7 | 10.4 | 0.00 | 0.00 | 0.00 | 46 | 1015.6 |
| 20260903011604 | 78 | 225 | 3.5 | 8.7 | 0.00 | 0.00 | 0.00 | 46 | 1015.6 |
| 20260903010057 | 78 | 288 | 3.5 | 8.7 | 0.00 | 0.00 | 0.00 | 45 | 1015.7 |
| 20260903004556 | 78 | 215 | 3.5 | 9.6 | 0.00 | 0.00 | 0.00 | 46 | 1015.7 |
| 20260903003054 | 79 | 150 | 3.5 | 9.6 | 0.00 | 0.00 | 0.00 | 46 | 1015.8 |
| 20260903001554 | 79 | 165 | 3.5 | 8.7 | 0.00 | 0.00 | 0.00 | 46 | 1015.9 |
| 20260903000056 | 79 | 188 | 2.6 | 7.8 | 0.00 | 0.00 | 0.00 | 47 | 1016.1 |
| 20260902234548 | 78 | 234 | 0.9 | 7.0 | 0.00 | 0.00 | 0.00 | 47 | 1016.2 |
| 20260902233047 | 78 | 268 | 1.7 | 8.7 | 0.00 | 0.00 | 0.00 | 48 | 1016.3 |
| 20260902231546 | 79 | 252 | 3.5 | 8.7 | 0.00 | 0.00 | 0.00 | 48 | 1016.5 |
| 20260902230045 | 79 | 228 | 3.5 | 8.7 | 0.00 | 0.00 | 0.00 | 48 | 1016.5 |
| 20260902224544 | 78 | 147 | 3.5 | 10.4 | 0.00 | 0.00 | 0.00 | 49 | 1016.7 |
| 20260902223042 | 78 | 165 | 3.5 | 8.7 | 0.00 | 0.00 | 0.00 | 49 | 1016.9 |
| 20260902221542 | 78 | 227 | 2.6 | 8.7 | 0.00 | 0.00 | 0.00 | 51 | 1016.9 |
| 20260902220045 | 77 | 89 | 4.3 | 10.4 | 0.00 | 0.00 | 0.00 | 50 | 1017.0 |
| 20260902214537 | 77 | 230 | 1.7 | 11.3 | 0.00 | 0.00 | 0.00 | 52 | 1017.1 |
| 20260902213036 | 77 | 232 | 0.9 | 7.0 | 0.00 | 0.00 | 0.00 | 52 | 1017.2 |
| 20260902211540 | 77 | 135 | 2.6 | 8.7 | 0.00 | 0.00 | 0.00 | 53 | 1017.3 |
| 20260902210105 | 77 | 236 | 1.7 | 7.0 | 0.00 | 0.00 | 0.00 | 52 | 1017.5 |